﻿_id,日時,平均風速(m/s),平均風向,最大瞬間風速(m/s),最大風速時風向,気温(℃),湿度(%),10分間移動積算雨量(mm),1時間移動積算雨量(mm),日雨量(mm),累計雨量(mm),日射(日積算)(MJ/m2),日照(日積算)(min),現地気圧(hPa),海面気圧(hPa)
1,2024-02-26T00:00:00,2.5,北,5,北,5.2,87,0,0,20.5,20.5,3.68,0,1006.5,1020.9
2,2024-02-26T00:01:00,2.6,北,5,北,5.1,87,0,0,0,20.5,0,0,1006.5,1020.9
3,2024-02-26T00:02:00,2.6,北,4.8,北,5.1,87.2,0,0,0,20.5,0,0,1006.5,1020.9
4,2024-02-26T00:03:00,2.6,北,4.8,北,5.1,87.2,0,0,0,20.5,0,0,1006.5,1020.9
5,2024-02-26T00:04:00,2.6,北,4.8,北,5.1,87.2,0,0,0,20.5,0,0,1006.5,1020.9
6,2024-02-26T00:05:00,2.6,北,4.8,北,5.2,87.5,0,0,0,20.5,0,0,1006.6,1021
7,2024-02-26T00:06:00,2.6,北,4.8,北,5.2,86.9,0,0,0,20.5,0,0,1006.6,1021
8,2024-02-26T00:07:00,2.5,北,4.8,北,5.2,86.6,0,0,0,20.5,0,0,1006.6,1021
9,2024-02-26T00:08:00,2.4,北,4.8,北,5.2,86.6,0,0,0,20.5,0,0,1006.6,1021
10,2024-02-26T00:09:00,2.3,北,4.7,北北東,5.2,86.5,0,0,0,20.5,0,0,1006.7,1021.1
11,2024-02-26T00:10:00,2.1,北,4.7,北北東,5.1,86.7,0,0,0,20.5,0,0,1006.7,1021.1
12,2024-02-26T00:11:00,2,北,4.7,北北東,5.2,87,0,0,0,20.5,0,0,1006.7,1021.1
13,2024-02-26T00:12:00,1.9,北,4,北,5.1,87.2,0,0,0,20.5,0,0,1006.7,1021.1
14,2024-02-26T00:13:00,1.9,北,4,北,5.2,87.2,0,0,0,20.5,0,0,1006.7,1021.1
15,2024-02-26T00:14:00,1.8,北北西,4,北,5.2,87,0,0,0,20.5,0,0,1006.7,1021.1
16,2024-02-26T00:15:00,1.8,北北西,4,北,5.2,86.9,0,0,0,20.5,0,0,1006.7,1021.1
17,2024-02-26T00:16:00,1.9,北,4.4,北,5.2,87,0,0,0,20.5,0,0,1006.7,1021.1
18,2024-02-26T00:17:00,2,北,4.4,北,5.2,87.2,0,0,0,20.5,0,0,1006.7,1021.1
19,2024-02-26T00:18:00,2.1,北,4.4,北,5.2,87.1,0,0,0,20.5,0,0,1006.7,1021.1
20,2024-02-26T00:19:00,2.2,北,4.7,北,5.4,86.8,0,0,0,20.5,0,0,1006.7,1021.1
21,2024-02-26T00:20:00,2.3,北,4.7,北,5.4,86.2,0,0,0,20.5,0,0,1006.7,1021.1
22,2024-02-26T00:21:00,2.2,北,4.9,北,5.4,85.9,0,0,0,20.5,0,0,1006.7,1021.1
23,2024-02-26T00:22:00,2.2,北,4.9,北,5.5,85.7,0,0,0,20.5,0,0,1006.7,1021.1
24,2024-02-26T00:23:00,2.2,北,4.9,北,5.5,85.6,0,0,0,20.5,0,0,1006.7,1021.1
25,2024-02-26T00:24:00,2.4,北,4.9,北,5.6,85.5,0,0,0,20.5,0,0,1006.6,1021
26,2024-02-26T00:25:00,2.5,北,4.9,北,5.5,85.2,0,0,0,20.5,0,0,1006.6,1021
27,2024-02-26T00:26:00,2.5,北,4.9,北,5.5,85.2,0,0,0,20.5,0,0,1006.6,1021
28,2024-02-26T00:27:00,2.4,北,4.9,北,5.6,85.4,0,0,0,20.5,0,0,1006.6,1021
29,2024-02-26T00:28:00,2.5,北,4.9,北,5.6,85.2,0,0,0,20.5,0,0,1006.6,1021
30,2024-02-26T00:29:00,2.4,北,4.9,北,5.6,85.3,0,0,0,20.5,0,0,1006.6,1021
31,2024-02-26T00:30:00,2.5,北,4.9,北,5.5,85.1,0,0,0,20.5,0,0,1006.6,1021
32,2024-02-26T00:31:00,2.4,北,4.7,北,5.5,85.2,0,0,0,20.5,0,0,1006.6,1021
33,2024-02-26T00:32:00,2.3,北,4.7,北,5.5,85.6,0,0,0,20.5,0,0,1006.6,1021
34,2024-02-26T00:33:00,2.2,北,4.7,北,5.5,85.5,0,0,0,20.5,0,0,1006.6,1021
35,2024-02-26T00:34:00,2,北,4.7,北,5.5,85.5,0,0,0,20.5,0,0,1006.6,1021
36,2024-02-26T00:35:00,1.9,北,4.7,北,5.4,85.5,0,0,0,20.5,0,0,1006.6,1021
37,2024-02-26T00:36:00,1.7,北,3.9,北北東,5.4,85.6,0,0,0,20.5,0,0,1006.6,1021
38,2024-02-26T00:37:00,1.7,北,3.7,北北東,5.4,85.7,0,0,0,20.5,0,0,1006.5,1020.9
39,2024-02-26T00:38:00,1.6,北,4.1,北西,5.5,85.7,0,0,0,20.5,0,0,1006.6,1021
40,2024-02-26T00:39:00,1.6,北北西,4.1,北西,5.5,85.6,0,0,0,20.5,0,0,1006.6,1021
41,2024-02-26T00:40:00,1.5,北北西,4.1,北西,5.5,85.5,0,0,0,20.5,0,0,1006.5,1020.9
42,2024-02-26T00:41:00,1.5,北北西,4.1,北西,5.5,85.6,0,0,0,20.5,0,0,1006.5,1020.9
43,2024-02-26T00:42:00,1.6,北北西,4.1,北西,5.5,85.5,0,0,0,20.5,0,0,1006.5,1020.9
44,2024-02-26T00:43:00,1.9,北北西,5.3,北北東,5.5,85.5,0,0,0,20.5,0,0,1006.5,1020.9
45,2024-02-26T00:44:00,2.1,北,5.3,北北東,5.6,85.7,0,0,0,20.5,0,0,1006.5,1020.9
46,2024-02-26T00:45:00,2.3,北,5.3,北北東,5.6,85.4,0,0,0,20.5,0,0,1006.5,1020.9
47,2024-02-26T00:46:00,2.5,北,5.3,北北東,5.5,85.2,0,0,0,20.5,0,0,1006.5,1020.9
48,2024-02-26T00:47:00,2.6,北,5.3,北北東,5.5,85.2,0,0,0,20.5,0,0,1006.5,1020.9
49,2024-02-26T00:48:00,2.7,北北東,5.3,北北東,5.4,85.4,0,0,0,20.5,0,0,1006.5,1020.9
50,2024-02-26T00:49:00,2.7,北北東,5.3,北北東,5.4,85.6,0,0,0,20.5,0,0,1006.5,1020.9
51,2024-02-26T00:50:00,2.9,北北東,5.3,北北東,5.4,86.1,0,0,0,20.5,0,0,1006.5,1020.9
52,2024-02-26T00:51:00,3.1,北北東,5.3,北北東,5.4,86.3,0,0,0,20.5,0,0,1006.5,1020.9
53,2024-02-26T00:52:00,3.2,北北東,5.3,北北東,5.4,86.2,0,0,0,20.5,0,0,1006.5,1020.9
54,2024-02-26T00:53:00,3.2,北北東,4.9,北,5.5,86.2,0,0,0,20.5,0,0,1006.5,1020.9
55,2024-02-26T00:54:00,3.2,北北東,6.3,北,5.5,86.1,0,0,0,20.5,0,0,1006.5,1020.9
56,2024-02-26T00:55:00,3.2,北北東,6.3,北,5.5,85.9,0,0,0,20.5,0,0,1006.5,1020.9
57,2024-02-26T00:56:00,3.1,北北東,6.3,北,5.5,85.3,0,0,0,20.5,0,0,1006.6,1021
58,2024-02-26T00:57:00,3.1,北北東,6.3,北,5.5,85,0,0,0,20.5,0,0,1006.6,1021
59,2024-02-26T00:58:00,3,北北東,6.3,北,5.5,84.7,0,0,0,20.5,0,0,1006.5,1020.9
60,2024-02-26T00:59:00,3,北,6.3,北,5.6,84.1,0,0,0,20.5,0,0,1006.5,1020.9
61,2024-02-26T01:00:00,3.1,北,6.3,北,5.6,83.9,0,0,0,20.5,0,0,1006.4,1020.8
62,2024-02-26T01:01:00,3.1,北,6.3,北,5.6,84,0,0,0,20.5,0,0,1006.5,1020.9
63,2024-02-26T01:02:00,3.1,北,6.3,北,5.5,83.8,0,0,0,20.5,0,0,1006.5,1020.9
64,2024-02-26T01:03:00,3.2,北,6.3,北,5.5,84.1,0,0,0,20.5,0,0,1006.5,1020.9
65,2024-02-26T01:04:00,3.1,北,6.1,北,5.5,84.3,0,0,0,20.5,0,0,1006.5,1020.9
66,2024-02-26T01:05:00,3,北,6.1,北,5.6,84.3,0,0,0,20.5,0,0,1006.5,1020.9
67,2024-02-26T01:06:00,3.1,北,6.1,北,5.5,84,0,0,0,20.5,0,0,1006.5,1020.9
68,2024-02-26T01:07:00,3.1,北北東,6.1,北,5.5,84.1,0,0,0,20.5,0,0,1006.5,1020.9
69,2024-02-26T01:08:00,3.1,北北東,6.1,北,5.4,84.2,0,0,0,20.5,0,0,1006.4,1020.8
70,2024-02-26T01:09:00,3.1,北北東,6.1,北,5.4,84.6,0,0,0,20.5,0,0,1006.5,1020.9
71,2024-02-26T01:10:00,2.9,北北東,6.1,北,5.3,84.6,0,0,0,20.5,0,0,1006.5,1020.9
72,2024-02-26T01:11:00,2.7,北北東,6.1,北,5.3,84.4,0,0,0,20.5,0,0,1006.5,1020.9
73,2024-02-26T01:12:00,2.6,北北東,6.1,北,5.4,84.3,0,0,0,20.5,0,0,1006.5,1020.9
74,2024-02-26T01:13:00,2.5,北北東,5.1,北,5.3,84.5,0,0,0,20.5,0,0,1006.6,1021
75,2024-02-26T01:14:00,2.5,北北東,4.8,北北東,5.1,84.7,0,0,0,20.5,0,0,1006.6,1021
76,2024-02-26T01:15:00,2.5,北北東,5.1,北,5.1,85.6,0,0,0,20.5,0,0,1006.6,1021
77,2024-02-26T01:16:00,2.5,北北東,5.1,北,5,85.8,0,0,0,20.5,0,0,1006.6,1021
78,2024-02-26T01:17:00,2.5,北北東,5.1,北,5.1,86.5,0,0,0,20.5,0,0,1006.6,1021
79,2024-02-26T01:18:00,2.6,北北東,5.1,北,5.1,86.6,0,0,0,20.5,0,0,1006.6,1021
80,2024-02-26T01:19:00,2.5,北北東,5.1,北,5.1,86.7,0,0,0,20.5,0,0,1006.6,1021
81,2024-02-26T01:20:00,2.6,北北東,5.1,北,5,86.3,0,0,0,20.5,0,0,1006.6,1021
82,2024-02-26T01:21:00,2.6,北北東,5.1,北,5,86.6,0,0,0,20.5,0,0,1006.6,1021
83,2024-02-26T01:22:00,2.7,北北東,5.1,北,5.1,86.9,0,0,0,20.5,0,0,1006.6,1021
84,2024-02-26T01:23:00,2.6,北北東,5.1,北,5,86.4,0,0,0,20.5,0,0,1006.6,1021
85,2024-02-26T01:24:00,2.5,北北東,5.1,北,4.8,86.4,0,0,0,20.5,0,0,1006.6,1021
86,2024-02-26T01:25:00,2.4,北北東,3.9,北北東,5,87.1,0,0,0,20.5,0,0,1006.6,1021
87,2024-02-26T01:26:00,2.3,北北東,3.9,北北東,4.9,87.3,0,0,0,20.5,0,0,1006.6,1021
88,2024-02-26T01:27:00,2.3,北北東,3.9,北北東,4.8,87.2,0,0,0,20.5,0,0,1006.6,1021
89,2024-02-26T01:28:00,2.2,北北東,3.9,北北東,4.8,87.6,0,0,0,20.5,0,0,1006.5,1020.9
90,2024-02-26T01:29:00,2.2,北北東,3.9,北北東,4.9,88.1,0,0,0,20.5,0,0,1006.6,1021
91,2024-02-26T01:30:00,2.1,北北東,3.9,北北東,4.9,88.2,0,0,0,20.5,0,0,1006.6,1021
92,2024-02-26T01:31:00,2.1,北北東,4.6,北,4.7,87.6,0,0,0,20.5,0,0,1006.6,1021
93,2024-02-26T01:32:00,2,北,4.6,北,4.8,87.5,0,0,0,20.5,0,0,1006.7,1021.1
94,2024-02-26T01:33:00,2.1,北,4.6,北,4.9,87.1,0,0,0,20.5,0,0,1006.7,1021.1
95,2024-02-26T01:34:00,2,北,4.6,北,5,86.6,0,0,0,20.5,0,0,1006.7,1021.1
96,2024-02-26T01:35:00,1.9,北,4.6,北,4.9,86.4,0,0,0,20.5,0,0,1006.6,1021
97,2024-02-26T01:36:00,1.9,北,4.6,北,5,86.2,0,0,0,20.5,0,0,1006.6,1021
98,2024-02-26T01:37:00,1.9,北,4.6,北,5,86.1,0,0,0,20.5,0,0,1006.6,1021
99,2024-02-26T01:38:00,1.9,北北西,4.6,北,5,85.9,0,0,0,20.5,0,0,1006.6,1021
100,2024-02-26T01:39:00,1.9,北北西,4.6,北,5,85.8,0,0,0,20.5,0,0,1006.5,1020.9
101,2024-02-26T01:40:00,1.9,北北西,4.6,北,5,85.7,0,0,0,20.5,0,0,1006.5,1020.9
102,2024-02-26T01:41:00,1.8,北北西,4.3,北,5.1,85.4,0,0,0,20.5,0,0,1006.5,1020.9
103,2024-02-26T01:42:00,1.8,北北西,4.3,北,5.2,85.5,0,0,0,20.5,0,0,1006.5,1020.9
104,2024-02-26T01:43:00,1.8,北北西,4.3,北,5.1,85.1,0,0,0,20.5,0,0,1006.5,1020.9
105,2024-02-26T01:44:00,1.9,北北西,4.3,北,5.1,85.1,0,0,0,20.5,0,0,1006.5,1020.9
106,2024-02-26T01:45:00,1.9,北北西,4.3,北,5.1,84.9,0,0,0,20.5,0,0,1006.5,1020.9
107,2024-02-26T01:46:00,1.9,北北西,4.3,北,5,84.9,0,0,0,20.5,0,0,1006.4,1020.8
108,2024-02-26T01:47:00,1.8,北北西,4.3,北,5,85,0,0,0,20.5,0,0,1006.5,1020.9
109,2024-02-26T01:48:00,1.8,北北西,4.3,北,4.9,85.1,0,0,0,20.5,0,0,1006.4,1020.8
110,2024-02-26T01:49:00,1.7,北北西,3.7,北北東,4.9,85.4,0,0,0,20.5,0,0,1006.5,1020.9
111,2024-02-26T01:50:00,1.7,北北西,3.7,北北東,4.9,85.4,0,0,0,20.5,0,0,1006.5,1020.9
112,2024-02-26T01:51:00,1.7,北北西,3.7,北北東,4.8,85.6,0,0,0,20.5,0,0,1006.5,1020.9
113,2024-02-26T01:52:00,1.6,北北西,3.5,北西,4.8,85.7,0,0,0,20.5,0,0,1006.5,1020.9
114,2024-02-26T01:53:00,1.6,北北西,3.5,北西,4.9,85.7,0,0,0,20.5,0,0,1006.4,1020.8
115,2024-02-26T01:54:00,1.6,北北西,3.1,北西,4.9,85.5,0,0,0,20.5,0,0,1006.5,1020.9
116,2024-02-26T01:55:00,1.6,北北西,3.5,北西,5,85.3,0,0,0,20.5,0,0,1006.4,1020.8
117,2024-02-26T01:56:00,1.6,北北西,3.5,北西,4.9,85.1,0,0,0,20.5,0,0,1006.5,1020.9
118,2024-02-26T01:57:00,1.7,北北西,3.5,北西,4.9,85.2,0,0,0,20.5,0,0,1006.4,1020.8
119,2024-02-26T01:58:00,1.9,北北西,5.6,北北東,5,85.3,0,0,0,20.5,0,0,1006.4,1020.8
120,2024-02-26T01:59:00,2.1,北北西,5.6,北北東,5.1,84.8,0,0,0,20.5,0,0,1006.4,1020.8
121,2024-02-26T02:00:00,2.2,北北西,5.6,北北東,5.1,84.3,0,0,0,20.5,0,0,1006.5,1020.9
122,2024-02-26T02:01:00,2.2,北北西,5.6,北北東,5.1,84.3,0,0,0,20.5,0,0,1006.5,1020.9
123,2024-02-26T02:02:00,2.4,北北西,5.6,北北東,4.9,84.3,0,0,0,20.5,0,0,1006.5,1020.9
124,2024-02-26T02:03:00,2.4,北北西,5.6,北北東,4.9,84.9,0,0,0,20.5,0,0,1006.5,1020.9
125,2024-02-26T02:04:00,2.5,北北西,5.6,北北東,4.9,85.1,0,0,0,20.5,0,0,1006.5,1020.9
126,2024-02-26T02:05:00,2.5,北,5.6,北北東,4.8,85.1,0,0,0,20.5,0,0,1006.5,1020.9
127,2024-02-26T02:06:00,2.4,北,5.6,北北東,4.7,85.5,0,0,0,20.5,0,0,1006.5,1020.9
128,2024-02-26T02:07:00,2.5,北北西,5.6,北北東,4.7,86,0,0,0,20.5,0,0,1006.5,1020.9
129,2024-02-26T02:08:00,2.3,北北西,4.9,北,4.7,86.3,0,0,0,20.5,0,0,1006.5,1020.9
130,2024-02-26T02:09:00,2.2,北北西,4.9,北,4.7,86.3,0,0,0,20.5,0,0,1006.5,1020.9
131,2024-02-26T02:10:00,2.2,北北西,4.9,北,4.7,86.3,0,0,0,20.5,0,0,1006.4,1020.8
132,2024-02-26T02:11:00,2.2,北北西,4.9,北,4.7,86.4,0,0,0,20.5,0,0,1006.5,1020.9
133,2024-02-26T02:12:00,2.2,北北西,4.9,北,4.8,86.3,0,0,0,20.5,0,0,1006.5,1020.9
134,2024-02-26T02:13:00,2.2,北北西,4.7,北北東,4.8,86.2,0,0,0,20.5,0,0,1006.4,1020.8
135,2024-02-26T02:14:00,2.3,北北西,4.6,北西,4.7,86,0,0,0,20.5,0,0,1006.5,1020.9
136,2024-02-26T02:15:00,2.2,北北西,4.6,北西,4.7,86,0,0,0,20.5,0,0,1006.5,1020.9
137,2024-02-26T02:16:00,2.3,北北西,4.6,北西,4.6,86,0,0,0,20.5,0,0,1006.5,1020.9
138,2024-02-26T02:17:00,2.3,北北西,4.4,北北東,4.6,86.2,0,0,0,20.5,0,0,1006.5,1020.9
139,2024-02-26T02:18:00,2.4,北北西,4.4,北北東,4.6,86.4,0,0,0,20.5,0,0,1006.6,1021
140,2024-02-26T02:19:00,2.3,北北西,4.4,北北東,4.6,86.5,0,0,0,20.5,0,0,1006.5,1020.9
141,2024-02-26T02:20:00,2.3,北北西,4.5,北,4.6,86.4,0,0,0,20.5,0,0,1006.5,1020.9
142,2024-02-26T02:21:00,2.2,北北西,4.5,北,4.7,86.2,0,0,0,20.5,0,0,1006.5,1020.9
143,2024-02-26T02:22:00,2.2,北北西,4.5,北,4.7,85.8,0,0,0,20.5,0,0,1006.4,1020.8
144,2024-02-26T02:23:00,2.1,北北西,4.5,北,4.7,85.7,0,0,0,20.5,0,0,1006.4,1020.8
145,2024-02-26T02:24:00,2,北北西,4.5,北,4.7,85.8,0,0,0,20.5,0,0,1006.4,1020.8
146,2024-02-26T02:25:00,2,北北西,4.5,北,4.7,85.8,0,0,0,20.5,0,0,1006.4,1020.8
147,2024-02-26T02:26:00,2,北北西,4.5,北,4.6,85.7,0,0,0,20.5,0,0,1006.3,1020.7
148,2024-02-26T02:27:00,2,北北西,5,北,4.6,85.9,0,0,0,20.5,0,0,1006.3,1020.7
149,2024-02-26T02:28:00,1.9,北北西,5,北,4.7,85.9,0,0,0,20.5,0,0,1006.4,1020.8
150,2024-02-26T02:29:00,1.9,北,5,北,4.6,85.8,0,0,0,20.5,0,0,1006.3,1020.7
151,2024-02-26T02:30:00,1.9,北,5,北,4.6,85.9,0,0,0,20.5,0,0,1006.3,1020.7
152,2024-02-26T02:31:00,1.8,北,5,北,4.5,85.9,0,0,0,20.5,0,0,1006.3,1020.7
153,2024-02-26T02:32:00,1.8,北,5,北,4.5,86.1,0,0,0,20.5,0,0,1006.4,1020.8
154,2024-02-26T02:33:00,1.8,北,5,北,4.6,86.2,0,0,0,20.5,0,0,1006.4,1020.8
155,2024-02-26T02:34:00,1.8,北北西,5,北,4.6,86.1,0,0,0,20.5,0,0,1006.3,1020.7
156,2024-02-26T02:35:00,1.7,北北西,5,北,4.6,86.1,0,0,0,20.5,0,0,1006.3,1020.7
157,2024-02-26T02:36:00,1.7,北北西,5,北,4.6,86.2,0,0,0,20.5,0,0,1006.3,1020.7
158,2024-02-26T02:37:00,1.6,北北西,4.2,北,4.6,86,0,0,0,20.5,0,0,1006.3,1020.7
159,2024-02-26T02:38:00,1.6,北北西,4.2,北,4.6,86,0,0,0,20.5,0,0,1006.3,1020.7
160,2024-02-26T02:39:00,1.6,北北西,3.7,北北東,4.6,85.9,0,0,0,20.5,0,0,1006.4,1020.8
161,2024-02-26T02:40:00,1.6,北北西,3.7,北北東,4.4,85.9,0,0,0,20.5,0,0,1006.3,1020.7
162,2024-02-26T02:41:00,1.7,北北西,4.8,北北東,4.4,86.3,0,0,0,20.5,0,0,1006.4,1020.8
163,2024-02-26T02:42:00,2,北北西,5.6,北北東,4.4,86.8,0,0,0,20.5,0,0,1006.3,1020.7
164,2024-02-26T02:43:00,2.2,北,5.6,北北東,4.7,87.3,0,0,0,20.5,0,0,1006.3,1020.7
165,2024-02-26T02:44:00,2.3,北,5.6,北北東,4.8,87.2,0,0,0,20.5,0,0,1006.2,1020.6
166,2024-02-26T02:45:00,2.5,北,5.6,北北東,4.7,86.4,0,0,0,20.5,0,0,1006.2,1020.6
167,2024-02-26T02:46:00,2.5,北,5.6,北北東,4.8,86,0,0,0,20.5,0,0,1006.2,1020.6
168,2024-02-26T02:47:00,2.5,北,5.6,北北東,4.8,85.5,0,0,0,20.5,0,0,1006.2,1020.6
169,2024-02-26T02:48:00,2.7,北,5.6,北北東,4.7,85.3,0,0,0,20.5,0,0,1006.2,1020.6
170,2024-02-26T02:49:00,2.7,北,5.6,北北東,4.6,85.4,0,0,0,20.5,0,0,1006.1,1020.5
171,2024-02-26T02:50:00,2.8,北,5.6,北北東,4.5,85.6,0,0,0,20.5,0,0,1006.1,1020.5
172,2024-02-26T02:51:00,2.7,北,5.6,北北東,4.5,86,0,0,0,20.5,0,0,1006.1,1020.5
173,2024-02-26T02:52:00,2.5,北,5.3,北北東,4.5,86.3,0,0,0,20.5,0,0,1006.1,1020.5
174,2024-02-26T02:53:00,2.4,北,5.3,北北東,4.4,86.6,0,0,0,20.5,0,0,1006.1,1020.5
175,2024-02-26T02:54:00,2.4,北,5.3,北北東,4.4,86.8,0,0,0,20.5,0,0,1006.1,1020.5
176,2024-02-26T02:55:00,2.2,北,4.1,北北東,4.5,87.1,0,0,0,20.5,0,0,1006,1020.4
177,2024-02-26T02:56:00,2.3,北,4.1,北北東,4.4,87.1,0,0,0,20.5,0,0,1006,1020.4
178,2024-02-26T02:57:00,2.2,北,4.1,北北東,4.5,87,0,0,0,20.5,0,0,1006.1,1020.5
179,2024-02-26T02:58:00,2.1,北,4.1,北北東,4.4,86.9,0,0,0,20.5,0,0,1006.1,1020.5
180,2024-02-26T02:59:00,2,北,4.1,北北東,4.4,87,0,0,0,20.5,0,0,1006.2,1020.6
181,2024-02-26T03:00:00,1.9,北,3.7,北北東,4.4,87.1,0,0,0,20.5,0,0,1006.1,1020.5
182,2024-02-26T03:01:00,2,北,3.7,北北東,4.5,87.2,0,0,0,20.5,0,0,1006.2,1020.6
183,2024-02-26T03:02:00,1.9,北,3.7,北北東,4.5,87.1,0,0,0,20.5,0,0,1006.1,1020.5
184,2024-02-26T03:03:00,1.8,北,3.7,北北東,4.4,87,0,0,0,20.5,0,0,1006.2,1020.6
185,2024-02-26T03:04:00,1.8,北,3.7,北北東,4.5,87,0,0,0,20.5,0,0,1006.2,1020.6
186,2024-02-26T03:05:00,1.7,北,3.7,北北東,4.5,87,0,0,0,20.5,0,0,1006.1,1020.5
187,2024-02-26T03:06:00,1.7,北北西,3.7,北北東,4.5,86.9,0,0,0,20.5,0,0,1006.1,1020.5
188,2024-02-26T03:07:00,1.9,北北西,3.7,北北東,4.4,87,0,0,0,20.5,0,0,1006.1,1020.5
189,2024-02-26T03:08:00,2,北北西,3.7,北北東,4.5,87.2,0,0,0,20.5,0,0,1006.1,1020.5
190,2024-02-26T03:09:00,2.2,北北西,3.7,北北東,4.6,87.3,0,0,0,20.5,0,0,1006.1,1020.5
191,2024-02-26T03:10:00,2.2,北北西,4,北西,4.7,87.1,0,0,0,20.5,0,0,1006.1,1020.5
192,2024-02-26T03:11:00,2.2,北北西,4,北西,4.7,87,0,0,0,20.5,0,0,1006.2,1020.6
193,2024-02-26T03:12:00,2.3,北西,4,北西,4.7,86.7,0,0,0,20.5,0,0,1006.2,1020.6
194,2024-02-26T03:13:00,2.3,北西,4,北西,4.8,86.5,0,0,0,20.5,0,0,1006.2,1020.6
195,2024-02-26T03:14:00,2.4,北西,4,北西,4.8,86.5,0,0,0,20.5,0,0,1006.2,1020.6
196,2024-02-26T03:15:00,2.3,北西,4,北西,4.9,86.3,0,0,0,20.5,0,0,1006.2,1020.6
197,2024-02-26T03:16:00,2.2,北西,4,北西,4.8,86.4,0,0,0,20.5,0,0,1006.2,1020.6
198,2024-02-26T03:17:00,2.1,北北西,4,北西,4.8,86.5,0,0,0,20.5,0,0,1006.2,1020.6
199,2024-02-26T03:18:00,2,北北西,4,北西,4.7,86.9,0,0,0,20.5,0,0,1006.3,1020.7
200,2024-02-26T03:19:00,1.9,北北西,4,北西,4.7,87.7,0,0,0,20.5,0,0,1006.3,1020.7
201,2024-02-26T03:20:00,1.8,北,3.8,北北西,4.5,87.7,0,0,0,20.5,0,0,1006.3,1020.7
202,2024-02-26T03:21:00,1.8,北,3.4,北西,4.5,88.3,0,0,0,20.5,0,0,1006.3,1020.7
203,2024-02-26T03:22:00,1.7,北,3.4,北西,4.4,88.9,0,0,0,20.5,0,0,1006.2,1020.6
204,2024-02-26T03:23:00,1.7,北,3.4,北西,4.5,89.8,0,0,0,20.5,0,0,1006.3,1020.7
205,2024-02-26T03:24:00,1.6,北,2.5,東北東,4.4,89.3,0,0,0,20.5,0,0,1006.3,1020.7
206,2024-02-26T03:25:00,1.6,北,2.7,北北西,4.5,89.7,0,0,0,20.5,0,0,1006.4,1020.8
207,2024-02-26T03:26:00,1.7,北,2.7,北北西,4.6,90,0,0,0,20.5,0,0,1006.3,1020.7
208,2024-02-26T03:27:00,1.7,北,2.7,北北西,4.6,90,0,0,0,20.5,0,0,1006.3,1020.7
209,2024-02-26T03:28:00,1.6,北,2.7,北北西,4.6,89.9,0,0,0,20.5,0,0,1006.2,1020.6
210,2024-02-26T03:29:00,1.5,北北西,2.7,北北西,4.5,90,0,0,0,20.5,0,0,1006.3,1020.7
211,2024-02-26T03:30:00,1.5,北北西,2.7,北北西,4.6,90,0,0,0,20.5,0,0,1006.3,1020.7
212,2024-02-26T03:31:00,1.5,北北西,2.7,北北西,4.6,89.8,0,0,0,20.5,0,0,1006.2,1020.6
213,2024-02-26T03:32:00,1.5,北北西,2.7,北北西,4.6,89.8,0,0,0,20.5,0,0,1006.2,1020.6
214,2024-02-26T03:33:00,1.5,北西,2.7,北北西,4.6,90,0,0,0,20.5,0,0,1006.2,1020.6
215,2024-02-26T03:34:00,1.7,北西,3.5,北西,4.6,90.3,0,0,0,20.5,0,0,1006.2,1020.6
216,2024-02-26T03:35:00,1.7,北西,3.5,北西,4.6,90.3,0,0,0,20.5,0,0,1006.2,1020.6
217,2024-02-26T03:36:00,1.8,北西,3.6,北北西,4.6,90.2,0,0,0,20.5,0,0,1006.2,1020.6
218,2024-02-26T03:37:00,1.9,北西,4.2,北西,4.7,90,0,0,0,20.5,0,0,1006.2,1020.6
219,2024-02-26T03:38:00,2.1,北西,4.2,北西,4.7,89.9,0,0,0,20.5,0,0,1006.1,1020.5
220,2024-02-26T03:39:00,2.2,北西,4.2,北西,4.7,89.8,0,0,0,20.5,0,0,1006.1,1020.5
221,2024-02-26T03:40:00,2.4,北西,4.2,北西,4.7,89.7,0,0,0,20.5,0,0,1006.2,1020.6
222,2024-02-26T03:41:00,2.5,北西,5.4,北西,4.7,89.7,0,0,0,20.5,0,0,1006.2,1020.6
223,2024-02-26T03:42:00,2.6,北西,5.4,北西,4.7,89.7,0,0,0,20.5,0,0,1006.2,1020.6
224,2024-02-26T03:43:00,3,北西,5.8,北西,4.8,89.3,0,0,0,20.5,0,0,1006.2,1020.6
225,2024-02-26T03:44:00,3,北西,5.8,北西,4.9,89,0,0,0,20.5,0,0,1006.2,1020.6
226,2024-02-26T03:45:00,3,北西,5.8,北西,4.9,88.7,0,0,0,20.5,0,0,1006.2,1020.6
227,2024-02-26T03:46:00,2.9,北西,5.8,北西,4.9,88.4,0,0,0,20.5,0,0,1006.2,1020.6
228,2024-02-26T03:47:00,2.8,北北西,5.8,北西,4.8,88.6,0,0,0,20.5,0,0,1006.2,1020.6
229,2024-02-26T03:48:00,2.9,北北西,5.8,北西,4.8,88.8,0,0,0,20.5,0,0,1006.1,1020.5
230,2024-02-26T03:49:00,2.8,北北西,5.8,北西,4.8,88.7,0,0,0,20.5,0,0,1006.1,1020.5
231,2024-02-26T03:50:00,3.1,北北西,8.4,北西,4.9,88.4,0,0,0,20.5,0,0,1006,1020.4
232,2024-02-26T03:51:00,3.3,北西,8.4,北西,5,86.9,0,0,0,20.5,0,0,1005.9,1020.3
233,2024-02-26T03:52:00,3.4,北北西,8.4,北西,5.1,86.1,0,0,0,20.5,0,0,1006,1020.4
234,2024-02-26T03:53:00,3.2,北北西,8.4,北西,5.1,84.9,0,0,0,20.5,0,0,1006,1020.4
235,2024-02-26T03:54:00,3.2,北北西,8.4,北西,5.1,84.8,0,0,0,20.5,0,0,1006.1,1020.5
236,2024-02-26T03:55:00,3.4,北北西,8.4,北西,5.2,84.7,0,0,0,20.5,0,0,1006.1,1020.5
237,2024-02-26T03:56:00,3.5,北西,8.4,北西,5.1,84.9,0,0,0,20.5,0,0,1006.1,1020.5
238,2024-02-26T03:57:00,3.6,北西,8.4,北西,5,85.3,0,0,0,20.5,0,0,1006.1,1020.5
239,2024-02-26T03:58:00,3.5,北北西,8.4,北西,5,85.5,0,0,0,20.5,0,0,1006.1,1020.5
240,2024-02-26T03:59:00,3.6,北北西,8.4,北西,5,85.5,0,0,0,20.5,0,0,1006.2,1020.6
241,2024-02-26T04:00:00,3.3,北北西,6.6,北西,4.9,85.8,0,0,0,20.5,0,0,1006.2,1020.6
242,2024-02-26T04:01:00,3,北北西,5.6,北西,4.9,86.2,0,0,0,20.5,0,0,1006.2,1020.6
243,2024-02-26T04:02:00,2.8,北北西,5.6,北西,4.9,86.6,0,0,0,20.5,0,0,1006.2,1020.6
244,2024-02-26T04:03:00,2.6,北北西,5.6,北西,4.9,86.6,0,0,0,20.5,0,0,1006.3,1020.7
245,2024-02-26T04:04:00,2.5,北北西,5.4,北,4.9,86.6,0,0,0,20.5,0,0,1006.3,1020.7
246,2024-02-26T04:05:00,2.4,北北西,5.4,北,4.9,86.9,0,0,0,20.5,0,0,1006.4,1020.8
247,2024-02-26T04:06:00,2.4,北,5.4,北,4.9,86.7,0,0,0,20.5,0,0,1006.4,1020.8
248,2024-02-26T04:07:00,2.3,北,7,北北東,4.9,86.8,0,0,0,20.5,0,0,1006.4,1020.8
249,2024-02-26T04:08:00,2.4,北,7,北北東,4.9,86.9,0,0,0,20.5,0,0,1006.4,1020.8
250,2024-02-26T04:09:00,2.4,北,7,北北東,4.9,86.9,0,0,0,20.5,0,0,1006.4,1020.8
251,2024-02-26T04:10:00,2.5,北北西,7,北北東,4.9,86.8,0,0,0,20.5,0,0,1006.4,1020.8
252,2024-02-26T04:11:00,2.7,北北西,7,北北東,4.9,86.6,0,0,0,20.5,0,0,1006.4,1020.8
253,2024-02-26T04:12:00,2.9,北北西,7,北北東,4.9,86,0,0,0,20.5,0,0,1006.3,1020.7
254,2024-02-26T04:13:00,3.1,北北西,7,北北東,4.9,86.2,0,0,0,20.5,0,0,1006.3,1020.7
255,2024-02-26T04:14:00,3.3,北北西,7,北北東,4.8,86.6,0,0,0,20.5,0,0,1006.3,1020.7
256,2024-02-26T04:15:00,3.6,北北西,7.2,北西,4.8,86.7,0,0,0,20.5,0,0,1006.3,1020.7
257,2024-02-26T04:16:00,3.7,北北西,7.2,北西,4.9,85.9,0,0,0,20.5,0,0,1006.4,1020.8
258,2024-02-26T04:17:00,3.9,北西,7.2,北西,5,85.2,0,0,0,20.5,0,0,1006.4,1020.8
259,2024-02-26T04:18:00,3.9,北西,7.2,北西,5,85.2,0,0,0,20.5,0,0,1006.4,1020.8
260,2024-02-26T04:19:00,4.1,北西,8.1,北北東,4.9,85.4,0,0,0,20.5,0,0,1006.4,1020.8
261,2024-02-26T04:20:00,4.1,北西,8.1,北北東,5,84.9,0,0,0,20.5,0,0,1006.4,1020.8
262,2024-02-26T04:21:00,3.9,北北西,8.1,北北東,4.9,85.1,0,0,0,20.5,0,0,1006.4,1020.8
263,2024-02-26T04:22:00,3.8,北北西,8.1,北北東,4.9,85.4,0,0,0,20.5,0,0,1006.5,1020.9
264,2024-02-26T04:23:00,3.7,北北西,8.1,北北東,4.8,85.4,0,0,0,20.5,0,0,1006.5,1020.9
265,2024-02-26T04:24:00,3.5,北北西,8.1,北北東,4.8,85.1,0,0,0,20.5,0,0,1006.5,1020.9
266,2024-02-26T04:25:00,3.4,北北西,8.1,北北東,4.8,85.3,0,0,0,20.5,0,0,1006.5,1020.9
267,2024-02-26T04:26:00,3.4,北北西,8.1,北北東,4.8,86.2,0,0,0,20.5,0,0,1006.6,1021
268,2024-02-26T04:27:00,3.5,北,8.1,北北東,4.8,86.2,0,0,0,20.5,0,0,1006.5,1020.9
269,2024-02-26T04:28:00,3.6,北,8.1,北北東,4.9,86.5,0,0,0,20.5,0,0,1006.6,1021
270,2024-02-26T04:29:00,3.3,北,7.4,北北東,4.8,86.2,0,0,0,20.5,0,0,1006.6,1021
271,2024-02-26T04:30:00,3.3,北,7.4,北北東,4.7,86.1,0,0,0,20.5,0,0,1006.5,1020.9
272,2024-02-26T04:31:00,3.3,北,7.4,北北東,4.8,86.4,0,0,0,20.5,0,0,1006.6,1021
273,2024-02-26T04:32:00,3.2,北,7.4,北北東,4.8,86.4,0,0,0,20.5,0,0,1006.6,1021
274,2024-02-26T04:33:00,3.2,北,7.4,北北東,4.8,86.5,0,0,0,20.5,0,0,1006.7,1021.1
275,2024-02-26T04:34:00,3.1,北,7.4,北北東,4.7,86.7,0,0,0,20.5,0,0,1006.7,1021.1
276,2024-02-26T04:35:00,2.9,北,7.4,北北東,4.8,87.1,0,0,0,20.5,0,0,1006.7,1021.1
277,2024-02-26T04:36:00,2.7,北,7.4,北北東,4.6,87.1,0,0,0,20.5,0,0,1006.6,1021
278,2024-02-26T04:37:00,2.4,北,6.5,北北東,4.5,87.8,0,0,0,20.5,0,0,1006.7,1021.1
279,2024-02-26T04:38:00,2.2,北,6,北,4.5,88.2,0,0,0,20.5,0,0,1006.7,1021.1
280,2024-02-26T04:39:00,2.3,北,6,北,4.5,88.4,0,0,0,20.5,0,0,1006.7,1021.1
281,2024-02-26T04:40:00,2.2,北,4.7,北,4.6,89.2,0,0,0,20.5,0,0,1006.7,1021.1
282,2024-02-26T04:41:00,2.2,北,4.7,北,4.5,88.7,0,0,0,20.5,0,0,1006.7,1021.1
283,2024-02-26T04:42:00,2.2,北,4.7,北,4.5,89,0,0,0,20.5,0,0,1006.7,1021.1
284,2024-02-26T04:43:00,2.1,北,4.7,北,4.5,89.4,0,0,0,20.5,0,0,1006.7,1021.1
285,2024-02-26T04:44:00,2.1,北,4.7,北,4.5,89.4,0,0,0,20.5,0,0,1006.8,1021.2
286,2024-02-26T04:45:00,2.2,北,5.2,北,4.5,89.2,0,0,0,20.5,0,0,1006.8,1021.2
287,2024-02-26T04:46:00,2.1,北,5.2,北,4.6,89.3,0,0,0,20.5,0,0,1006.8,1021.2
288,2024-02-26T04:47:00,2.3,北,5.2,北,4.6,89.1,0,0,0,20.5,0,0,1006.7,1021.1
289,2024-02-26T04:48:00,2.5,北,6,北,4.6,89.3,0,0,0,20.5,0,0,1006.7,1021.1
290,2024-02-26T04:49:00,2.5,北,6,北,4.7,89.1,0,0,0,20.5,0,0,1006.8,1021.2
291,2024-02-26T04:50:00,2.6,北,6.5,北,4.7,88.9,0,0,0,20.5,0,0,1006.8,1021.2
292,2024-02-26T04:51:00,2.6,北,6.5,北,4.8,88.7,0,0,0,20.5,0,0,1006.7,1021.1
293,2024-02-26T04:52:00,2.6,北,6.5,北,4.7,88.5,0,0,0,20.5,0,0,1006.7,1021.1
294,2024-02-26T04:53:00,2.7,北,6.5,北,4.7,88.4,0,0,0,20.5,0,0,1006.6,1021
295,2024-02-26T04:54:00,2.8,北,6.5,北,4.8,88.5,0,0,0,20.5,0,0,1006.6,1021
296,2024-02-26T04:55:00,2.8,北,6.5,北,4.7,88.4,0,0,0,20.5,0,0,1006.6,1021
297,2024-02-26T04:56:00,2.7,北,6.5,北,4.8,88.2,0,0,0,20.5,0,0,1006.6,1021
298,2024-02-26T04:57:00,2.5,北,6.5,北,4.7,88.2,0,0,0,20.5,0,0,1006.6,1021
299,2024-02-26T04:58:00,2.3,北,6.5,北,4.8,88.1,0,0,0,20.5,0,0,1006.6,1021
300,2024-02-26T04:59:00,2.1,北,6.5,北,4.7,88.2,0,0,0,20.5,0,0,1006.6,1021
301,2024-02-26T05:00:00,2.1,北,6,北,4.8,88.1,0,0,0,20.5,0,0,1006.6,1021
302,2024-02-26T05:01:00,2,北北西,6,北,4.7,87.9,0,0,0,20.5,0,0,1006.6,1021
303,2024-02-26T05:02:00,2,北北西,6,北,4.8,88,0,0,0,20.5,0,0,1006.6,1021
304,2024-02-26T05:03:00,2,北北西,6,北,4.8,88.2,0,0,0,20.5,0,0,1006.6,1021
305,2024-02-26T05:04:00,2,北北西,5.2,北東,4.8,87.9,0,0,0,20.5,0,0,1006.6,1021
306,2024-02-26T05:05:00,2,北北西,4.9,北西,4.8,87.8,0,0,0,20.5,0,0,1006.6,1021
307,2024-02-26T05:06:00,2,北北西,4.9,北西,4.8,87.9,0,0,0,20.5,0,0,1006.6,1021
308,2024-02-26T05:07:00,2.3,北北西,7.1,西北西,4.8,87.7,0,0,0,20.5,0,0,1006.6,1021
309,2024-02-26T05:08:00,2.4,北北西,7.1,西北西,4.9,87,0,0,0,20.5,0,0,1006.6,1021
310,2024-02-26T05:09:00,2.5,北北西,7.1,西北西,4.9,86.7,0,0,0,20.5,0,0,1006.7,1021.1
311,2024-02-26T05:10:00,2.5,北北西,7.1,西北西,4.9,86.9,0,0,0,20.5,0,0,1006.7,1021.1
312,2024-02-26T05:11:00,2.5,北北西,7.1,西北西,4.9,86.9,0,0,0,20.5,0,0,1006.7,1021.1
313,2024-02-26T05:12:00,2.5,北北西,7.1,西北西,4.9,87.1,0,0,0,20.5,0,0,1006.7,1021.1
314,2024-02-26T05:13:00,2.5,北北西,7.1,西北西,4.8,87.6,0,0,0,20.5,0,0,1006.7,1021.1
315,2024-02-26T05:14:00,2.4,北北西,7.1,西北西,4.9,87.9,0,0,0,20.5,0,0,1006.8,1021.2
316,2024-02-26T05:15:00,2.6,北北西,7.1,西北西,4.8,88,0,0,0,20.5,0,0,1006.8,1021.2
317,2024-02-26T05:16:00,2.8,北,7.1,西北西,4.9,88.5,0,0,0,20.5,0,0,1006.8,1021.2
318,2024-02-26T05:17:00,2.6,北,6,北,4.8,88.3,0,0,0,20.5,0,0,1006.8,1021.2
319,2024-02-26T05:18:00,2.6,北,6,北,4.8,88.4,0,0,0,20.5,0,0,1006.8,1021.2
320,2024-02-26T05:19:00,2.7,北,6.1,北,4.8,88.2,0,0,0,20.5,0,0,1006.9,1021.3